Precipitable_Water
1.37 1.43 1.45 1.44 1.45 1.42 1.39 1.39 1.39 1.42 1.42 1.41 1.38 1.32 1.29 1.28 1.27 1.24 1.20 1.12 1.04 0.97 0.94 0.88 0.82 0.77 0.70 0.65 0.61 0.60 0.58 0.56 0.56 0.54 0.52 0.51 0.52 0.52 0.53 0.52 0.48 0.45 0.42 0.40 0.40 0.39 0.36 0.33 0.33 0.34 0.35 0.33 0.33 0.32 0.31 0.30 0.29 0.27 0.27 0.27 0.25 0.26 0.26 0.27 0.23 0.23 0.27 0.33 0.31 0.30 0.29 0.29 0.27 0.26 0.22 0.22 0.24 0.27 0.29 0.28 0.32 0.35 0.37 0.36 0.37
1.37 1.40 1.41 1.38 1.37 1.39 1.39 1.40 1.40 1.40 1.40 1.38 1.32 1.28 1.26 1.28 1.33 1.27 1.20 1.09 1.01 0.97 0.92 0.86 0.81 0.75 0.70 0.64 0.61 0.59 0.57 0.55 0.54 0.54 0.51 0.51 0.51 0.53 0.52 0.50 0.48 0.45 0.43 0.40 0.40 0.39 0.37 0.34 0.32 0.32 0.33 0.32 0.32 0.31 0.32 0.30 0.28 0.27 0.26 0.26 0.25 0.27 0.29 0.27 0.26 0.25 0.24 0.30 0.29 0.31 0.28 0.30 0.25 0.26 0.23 0.22 0.23 0.26 0.26 0.27 0.30 0.34 0.35 0.35 0.34
1.39 1.39 1.37 1.35 1.36 1.39 1.38 1.36 1.38 1.39 1.37 1.35 1.28 1.23 1.24 1.27 1.27 1.22 1.13 1.03 0.99 0.94 0.89 0.84 0.79 0.75 0.68 0.62 0.60 0.58 0.56 0.55 0.55 0.53 0.51 0.51 0.51 0.52 0.52 0.50 0.45 0.41 0.39 0.38 0.37 0.37 0.37 0.35 0.33 0.34 0.34 0.32 0.30 0.30 0.31 0.29 0.29 0.27 0.26 0.27 0.27 0.29 0.30 0.30 0.28 0.25 0.26 0.28 0.30 0.27 0.27 0.27 0.25 0.25 0.24 0.23 0.24 0.25 0.25 0.28 0.30 0.32 0.34 0.34 0.33
1.38 1.35 1.34 1.35 1.38 1.36 1.33 1.34 1.36 1.36 1.33 1.31 1.23 1.21 1.22 1.24 1.23 1.16 1.10 0.99 0.94 0.91 0.87 0.82 0.78 0.73 0.67 0.62 0.60 0.57 0.56 0.55 0.53 0.51 0.51 0.51 0.51 0.52 0.51 0.49 0.47 0.43 0.39 0.38 0.37 0.37 0.36 0.34 0.33 0.34 0.33 0.31 0.29 0.29 0.31 0.29 0.27 0.27 0.28 0.28 0.29 0.29 0.31 0.31 0.30 0.28 0.29 0.28 0.28 0.27 0.27 0.25 0.26 0.27 0.25 0.23 0.24 0.24 0.25 0.29 0.34 0.33 0.31 0.32 0.32
1.34 1.30 1.30 1.31 1.32 1.31 1.29 1.29 1.29 1.31 1.30 1.26 1.20 1.18 1.20 1.20 1.19 1.13 1.08 0.98 0.93 0.89 0.83 0.81 0.76 0.70 0.64 0.60 0.58 0.57 0.54 0.53 0.52 0.52 0.51 0.53 0.54 0.53 0.51 0.49 0.46 0.44 0.42 0.40 0.39 0.39 0.37 0.35 0.33 0.34 0.33 0.31 0.30 0.29 0.30 0.29 0.27 0.27 0.28 0.29 0.29 0.29 0.31 0.31 0.30 0.30 0.30 0.28 0.26 0.27 0.27 0.26 0.26 0.26 0.24 0.21 0.23 0.25 0.27 0.28 0.31 0.32 0.32 0.32 0.33
1.31 1.26 1.27 1.27 1.26 1.25 1.23 1.23 1.23 1.26 1.26 1.24 1.20 1.16 1.16 1.16 1.13 1.09 1.05 1.00 0.90 0.84 0.81 0.78 0.74 0.67 0.62 0.60 0.58 0.55 0.54 0.53 0.52 0.51 0.51 0.53 0.55 0.55 0.53 0.50 0.46 0.42 0.40 0.40 0.40 0.39 0.37 0.34 0.34 0.33 0.32 0.31 0.30 0.31 0.31 0.29 0.28 0.27 0.27 0.28 0.28 0.29 0.30 0.30 0.29 0.30 0.30 0.28 0.26 0.23 0.25 0.24 0.24 0.24 0.23 0.23 0.23 0.24 0.26 0.29 0.31 0.32 0.33 0.34 0.33
1.27 1.23 1.23 1.24 1.21 1.20 1.19 1.19 1.21 1.23 1.22 1.23 1.20 1.16 1.14 1.12 1.10 1.05 1.04 1.00 0.89 0.83 0.79 0.76 0.73 0.66 0.62 0.61 0.57 0.56 0.55 0.54 0.53 0.52 0.52 0.55 0.56 0.54 0.50 0.47 0.44 0.42 0.41 0.40 0.40 0.40 0.37 0.34 0.33 0.33 0.32 0.30 0.30 0.31 0.33 0.32 0.29 0.25 0.27 0.26 0.27 0.26 0.27 0.27 0.27 0.27 0.28 0.26 0.25 0.24 0.23 0.24 0.24 0.22 0.23 0.24 0.24 0.26 0.26 0.28 0.28 0.29 0.32 0.33 0.31
1.24 1.20 1.19 1.19 1.17 1.17 1.19 1.21 1.21 1.22 1.22 1.21 1.17 1.13 1.11 1.09 1.05 1.04 1.02 0.96 0.87 0.81 0.77 0.74 0.70 0.66 0.63 0.60 0.59 0.58 0.56 0.55 0.53 0.53 0.55 0.57 0.55 0.53 0.50 0.47 0.44 0.42 0.40 0.40 0.41 0.39 0.35 0.32 0.30 0.29 0.27 0.26 0.26 0.26 0.28 0.30 0.31 0.25 0.25 0.24 0.25 0.25 0.24 0.26 0.25 0.24 0.27 0.25 0.24 0.22 0.22 0.22 0.23 0.23 0.23 0.23 0.22 0.24 0.28 0.30 0.28 0.28 0.30 0.35 0.34
1.21 1.18 1.15 1.13 1.14 1.15 1.18 1.21 1.22 1.22 1.21 1.19 1.15 1.10 1.07 1.06 1.05 1.03 1.01 0.94 0.86 0.80 0.78 0.74 0.67 0.65 0.62 0.61 0.60 0.59 0.57 0.55 0.54 0.54 0.56 0.56 0.55 0.52 0.49 0.47 0.43 0.40 0.39 0.40 0.39 0.36 0.33 0.30 0.26 0.23 0.22 0.20 0.19 0.19 0.19 0.21 0.25 0.23 0.21 0.21 0.21 0.22 0.22 0.23 0.23 0.22 0.26 0.24 0.23 0.22 0.21 0.21 0.22 0.21 0.20 0.20 0.20 0.22 0.28 0.32 0.31 0.31 0.33 0.32 0.33
1.19 1.16 1.13 1.13 1.14 1.15 1.16 1.17 1.19 1.20 1.19 1.16 1.13 1.10 1.06 1.06 1.04 1.01 0.98 0.92 0.84 0.81 0.76 0.72 0.68 0.65 0.62 0.62 0.61 0.59 0.57 0.57 0.56 0.55 0.56 0.56 0.53 0.51 0.50 0.47 0.43 0.40 0.38 0.38 0.36 0.32 0.29 0.26 0.23 0.22 0.21 0.20 0.19 0.18 0.18 0.18 0.18 0.18 0.18 0.18 0.18 0.18 0.19 0.19 0.19 0.19 0.23 0.23 0.21 0.21 0.19 0.20 0.21 0.21 0.20 0.20 0.22 0.26 0.28 0.30 0.29 0.30 0.33 0.33 0.34
1.18 1.15 1.13 1.15 1.15 1.15 1.13 1.13 1.15 1.15 1.16 1.16 1.14 1.11 1.09 1.09 1.05 1.01 0.97 0.90 0.82 0.78 0.74 0.68 0.67 0.64 0.63 0.61 0.59 0.59 0.60 0.58 0.54 0.55 0.55 0.55 0.55 0.53 0.49 0.48 0.45 0.41 0.40 0.38 0.35 0.31 0.29 0.27 0.27 0.28 0.28 0.25 0.23 0.19 0.17 0.17 0.17 0.17 0.16 0.16 0.16 0.16 0.16 0.16 0.17 0.18 0.20 0.23 0.22 0.21 0.20 0.20 0.22 0.21 0.21 0.21 0.22 0.24 0.27 0.30 0.30 0.29 0.29 0.29 0.25
1.17 1.15 1.15 1.17 1.16 1.13 1.10 1.09 1.10 1.13 1.16 1.15 1.14 1.13 1.12 1.10 1.05 1.01 0.97 0.91 0.85 0.80 0.74 0.69 0.66 0.66 0.65 0.63 0.61 0.62 0.60 0.53 0.53 0.53 0.53 0.54 0.54 0.55 0.53 0.49 0.45 0.42 0.41 0.40 0.38 0.37 0.36 0.36 0.34 0.34 0.35 0.35 0.31 0.27 0.23 0.19 0.19 0.20 0.21 0.21 0.20 0.18 0.16 0.16 0.15 0.16 0.19 0.23 0.20 0.20 0.19 0.20 0.21 0.21 0.21 0.22 0.21 0.23 0.26 0.30 0.29 0.28 0.29 0.30 0.28
1.17 1.16 1.16 1.17 1.16 1.15 1.13 1.10 1.10 1.11 1.12 1.13 1.13 1.13 1.12 1.11 1.06 1.00 0.95 0.91 0.87 0.81 0.76 0.73 0.70 0.69 0.67 0.65 0.64 0.64 0.56 0.54 0.53 0.53 0.52 0.53 0.54 0.57 0.54 0.50 0.46 0.45 0.44 0.42 0.40 0.37 0.35 0.32 0.30 0.27 0.26 0.29 0.33 0.31 0.30 0.25 0.24 0.26 0.25 0.25 0.25 0.23 0.19 0.17 0.18 0.18 0.20 0.23 0.21 0.19 0.20 0.21 0.20 0.20 0.23 0.23 0.24 0.23 0.25 0.27 0.28 0.28 0.31 0.31 0.30
1.17 1.14 1.13 1.12 1.13 1.15 1.15 1.12 1.10 1.10 1.11 1.11 1.10 1.09 1.09 1.08 1.07 1.03 0.98 0.94 0.87 0.82 0.79 0.76 0.73 0.70 0.70 0.67 0.66 0.63 0.57 0.54 0.53 0.52 0.51 0.52 0.53 0.56 0.55 0.51 0.49 0.47 0.47 0.47 0.44 0.40 0.36 0.33 0.31 0.31 0.29 0.26 0.25 0.26 0.29 0.29 0.31 0.31 0.32 0.31 0.33 0.31 0.26 0.20 0.18 0.18 0.19 0.23 0.22 0.19 0.21 0.22 0.20 0.22 0.25 0.25 0.22 0.22 0.24 0.26 0.27 0.27 0.30 0.31 0.33
1.15 1.13 1.10 1.11 1.13 1.14 1.13 1.12 1.10 1.09 1.09 1.09 1.08 1.07 1.08 1.07 1.05 1.02 0.98 0.94 0.87 0.81 0.78 0.75 0.74 0.73 0.72 0.70 0.68 0.62 0.58 0.54 0.52 0.50 0.51 0.53 0.53 0.57 0.57 0.53 0.50 0.47 0.49 0.48 0.47 0.45 0.42 0.38 0.34 0.30 0.27 0.22 0.18 0.17 0.21 0.25 0.30 0.30 0.31 0.33 0.34 0.34 0.31 0.22 0.21 0.19 0.19 0.21 0.21 0.21 0.21 0.22 0.23 0.24 0.26 0.25 0.23 0.24 0.27 0.30 0.29 0.28 0.31 0.35 0.34
1.12 1.12 1.11 1.12 1.11 1.12 1.11 1.10 1.09 1.09 1.07 1.06 1.06 1.06 1.07 1.05 1.03 1.01 0.98 0.94 0.88 0.83 0.81 0.79 0.75 0.73 0.72 0.71 0.69 0.62 0.57 0.54 0.52 0.51 0.53 0.54 0.56 0.59 0.56 0.51 0.49 0.49 0.48 0.47 0.43 0.40 0.38 0.35 0.33 0.33 0.28 0.22 0.16 0.16 0.19 0.23 0.26 0.30 0.30 0.31 0.30 0.29 0.28 0.24 0.20 0.19 0.20 0.23 0.25 0.25 0.26 0.26 0.26 0.26 0.27 0.26 0.24 0.24 0.27 0.32 0.31 0.29 0.30 0.28 0.28
1.13 1.14 1.14 1.13 1.12 1.12 1.12 1.10 1.09 1.08 1.08 1.06 1.05 1.05 1.04 1.04 1.03 1.02 0.97 0.93 0.89 0.87 0.83 0.81 0.76 0.73 0.71 0.72 0.70 0.60 0.55 0.54 0.52 0.51 0.55 0.57 0.56 0.57 0.54 0.50 0.49 0.49 0.47 0.43 0.41 0.38 0.37 0.37 0.35 0.32 0.28 0.20 0.16 0.15 0.18 0.22 0.27 0.29 0.29 0.30 0.28 0.25 0.22 0.28 0.25 0.23 0.22 0.27 0.30 0.29 0.27 0.26 0.26 0.27 0.27 0.26 0.25 0.24 0.27 0.25 0.24 0.26 0.27 0.25 0.27
1.17 1.17 1.16 1.15 1.14 1.14 1.13 1.12 1.11 1.10 1.09 1.07 1.07 1.07 1.06 1.05 1.03 1.01 0.97 0.93 0.91 0.87 0.85 0.81 0.76 0.74 0.72 0.74 0.71 0.57 0.55 0.55 0.52 0.53 0.55 0.54 0.53 0.55 0.52 0.53 0.50 0.50 0.44 0.40 0.38 0.37 0.33 0.35 0.35 0.35 0.30 0.20 0.16 0.15 0.18 0.23 0.28 0.27 0.29 0.27 0.26 0.23 0.20 0.19 0.24 0.28 0.28 0.32 0.32 0.29 0.28 0.26 0.26 0.26 0.27 0.25 0.25 0.26 0.27 0.24 0.26 0.26 0.25 0.26 0.25
1.17 1.17 1.17 1.18 1.18 1.17 1.16 1.15 1.14 1.12 1.11 1.10 1.10 1.07 1.07 1.06 1.05 1.03 0.99 0.97 0.94 0.89 0.85 0.80 0.76 0.77 0.78 0.77 0.64 0.57 0.54 0.51 0.49 0.49 0.47 0.49 0.51 0.51 0.53 0.54 0.51 0.46 0.40 0.36 0.39 0.33 0.23 0.26 0.28 0.30 0.27 0.17 0.16 0.16 0.17 0.21 0.28 0.28 0.27 0.26 0.23 0.21 0.18 0.17 0.21 0.25 0.29 0.30 0.27 0.30 0.32 0.29 0.28 0.28 0.26 0.26 0.26 0.28 0.29 0.27 0.27 0.27 0.26 0.26 0.27
1.21 1.23 1.22 1.20 1.19 1.17 1.18 1.17 1.16 1.15 1.13 1.13 1.11 1.08 1.07 1.06 1.03 1.01 0.99 0.98 0.94 0.90 0.85 0.83 0.83 0.83 0.80 0.71 0.65 0.60 0.52 0.50 0.51 0.49 0.48 0.50 0.49 0.51 0.57 0.57 0.45 0.41 0.36 0.33 0.35 0.31 0.25 0.22 0.19 0.20 0.18 0.17 0.16 0.16 0.16 0.18 0.22 0.29 0.25 0.24 0.20 0.18 0.17 0.16 0.22 0.26 0.28 0.26 0.25 0.26 0.26 0.27 0.29 0.29 0.29 0.30 0.31 0.30 0.30 0.27 0.26 0.28 0.29 0.28 0.27
1.20 1.21 1.21 1.20 1.18 1.17 1.18 1.19 1.18 1.19 1.19 1.18 1.17 1.14 1.12 1.09 1.08 1.05 1.02 0.98 0.95 0.93 0.89 0.91 0.86 0.79 0.74 0.70 0.64 0.59 0.55 0.53 0.53 0.50 0.48 0.47 0.47 0.51 0.58 0.55 0.45 0.39 0.35 0.32 0.32 0.31 0.30 0.26 0.22 0.18 0.17 0.17 0.17 0.17 0.16 0.17 0.19 0.24 0.25 0.20 0.19 0.16 0.15 0.19 0.24 0.28 0.28 0.25 0.25 0.26 0.27 0.29 0.30 0.31 0.29 0.30 0.30 0.30 0.29 0.28 0.27 0.29 0.29 0.28 0.28
1.21 1.21 1.19 1.14 1.14 1.16 1.18 1.21 1.21 1.19 1.17 1.16 1.13 1.12 1.13 1.11 1.10 1.08 1.04 1.01 0.93 0.91 0.84 0.75 0.70 0.70 0.70 0.66 0.62 0.60 0.58 0.55 0.53 0.49 0.46 0.44 0.46 0.54 0.55 0.53 0.52 0.40 0.36 0.33 0.31 0.32 0.30 0.34 0.30 0.20 0.18 0.17 0.17 0.17 0.17 0.17 0.18 0.24 0.23 0.17 0.16 0.15 0.17 0.22 0.25 0.27 0.26 0.25 0.25 0.27 0.29 0.29 0.30 0.30 0.30 0.31 0.31 0.30 0.30 0.29 0.30 0.31 0.29 0.30 0.32
1.21 1.22 1.18 1.24 1.23 1.21 1.22 1.20 1.18 1.16 1.15 1.14 1.12 1.10 1.10 1.09 1.07 1.03 1.00 0.93 0.88 0.81 0.74 0.71 0.68 0.67 0.67 0.66 0.62 0.60 0.58 0.55 0.53 0.48 0.43 0.41 0.47 0.53 0.50 0.47 0.44 0.41 0.38 0.34 0.33 0.35 0.36 0.38 0.32 0.24 0.18 0.18 0.17 0.17 0.17 0.17 0.19 0.23 0.19 0.17 0.16 0.18 0.21 0.25 0.27 0.26 0.25 0.26 0.26 0.28 0.29 0.30 0.30 0.29 0.31 0.32 0.32 0.32 0.31 0.30 0.32 0.32 0.31 0.33 0.34
1.23 1.22 1.13 1.10 1.11 1.14 1.17 1.16 1.13 1.12 1.12 1.11 1.08 1.06 1.04 1.03 1.01 0.96 0.89 0.81 0.76 0.72 0.71 0.69 0.66 0.64 0.61 0.59 0.61 0.63 0.61 0.56 0.52 0.46 0.42 0.43 0.48 0.47 0.44 0.43 0.42 0.41 0.43 0.43 0.35 0.39 0.37 0.36 0.32 0.26 0.19 0.18 0.18 0.18 0.18 0.18 0.20 0.21 0.19 0.17 0.17 0.20 0.24 0.27 0.27 0.25 0.27 0.26 0.27 0.28 0.29 0.30 0.30 0.30 0.32 0.34 0.33 0.34 0.33 0.33 0.34 0.34 0.33 0.33 0.33
1.18 1.16 1.10 1.07 1.09 1.12 1.14 1.13 1.11 1.11 1.11 1.09 1.04 1.00 0.98 0.96 0.90 0.86 0.82 0.76 0.73 0.70 0.67 0.66 0.63 0.62 0.59 0.59 0.62 0.64 0.67 0.62 0.54 0.47 0.47 0.48 0.44 0.42 0.40 0.40 0.40 0.40 0.40 0.46 0.44 0.41 0.38 0.34 0.31 0.23 0.19 0.19 0.19 0.19 0.19 0.18 0.19 0.19 0.19 0.18 0.19 0.24 0.28 0.28 0.26 0.27 0.27 0.27 0.27 0.28 0.30 0.30 0.32 0.32 0.35 0.36 0.35 0.35 0.34 0.34 0.35 0.35 0.35 0.34 0.34
1.13 1.13 1.11 1.09 1.11 1.13 1.13 1.11 1.09 1.09 1.08 1.06 1.03 0.99 0.96 0.93 0.88 0.85 0.81 0.75 0.73 0.71 0.69 0.68 0.65 0.63 0.60 0.59 0.61 0.63 0.65 0.63 0.61 0.56 0.53 0.49 0.43 0.38 0.37 0.38 0.38 0.37 0.38 0.39 0.39 0.38 0.35 0.33 0.30 0.25 0.21 0.20 0.20 0.20 0.22 0.26 0.24 0.22 0.20 0.20 0.22 0.28 0.28 0.26 0.28 0.28 0.28 0.28 0.29 0.29 0.30 0.31 0.33 0.34 0.36 0.35 0.34 0.33 0.34 0.33 0.34 0.35 0.36 0.35 0.34
1.05 1.06 1.05 1.06 1.07 1.07 1.06 1.04 1.04 1.04 1.04 1.02 1.00 0.98 0.96 0.90 0.84 0.79 0.77 0.74 0.74 0.75 0.73 0.71 0.67 0.64 0.62 0.60 0.61 0.64 0.64 0.63 0.64 0.64 0.56 0.49 0.43 0.39 0.38 0.36 0.36 0.35 0.35 0.37 0.36 0.36 0.35 0.32 0.28 0.24 0.22 0.23 0.21 0.21 0.24 0.26 0.25 0.23 0.21 0.24 0.28 0.30 0.27 0.27 0.27 0.29 0.30 0.30 0.30 0.31 0.32 0.33 0.34 0.34 0.33 0.33 0.32 0.32 0.35 0.34 0.34 0.35 0.37 0.35 0.34
0.97 0.99 1.00 1.01 1.01 1.02 1.01 1.01 1.00 0.99 0.98 0.97 0.95 0.94 0.93 0.89 0.82 0.78 0.76 0.75 0.76 0.76 0.73 0.71 0.66 0.64 0.63 0.62 0.64 0.64 0.62 0.62 0.64 0.66 0.58 0.49 0.42 0.40 0.38 0.38 0.37 0.35 0.33 0.33 0.33 0.34 0.33 0.28 0.24 0.23 0.23 0.22 0.21 0.21 0.21 0.22 0.22 0.22 0.27 0.31 0.33 0.31 0.26 0.27 0.29 0.33 0.35 0.33 0.32 0.33 0.33 0.33 0.31 0.32 0.32 0.31 0.31 0.31 0.34 0.34 0.33 0.35 0.36 0.35 0.33
0.93 0.94 0.97 0.98 0.98 1.00 1.01 1.00 0.99 0.97 0.96 0.95 0.94 0.92 0.89 0.85 0.81 0.80 0.82 0.81 0.80 0.76 0.71 0.69 0.67 0.67 0.68 0.67 0.64 0.60 0.59 0.60 0.64 0.69 0.59 0.48 0.41 0.38 0.38 0.38 0.39 0.38 0.36 0.34 0.32 0.31 0.30 0.29 0.25 0.24 0.24 0.23 0.23 0.23 0.24 0.26 0.28 0.32 0.32 0.29 0.27 0.29 0.31 0.32 0.33 0.35 0.34 0.31 0.32 0.31 0.31 0.31 0.31 0.32 0.31 0.30 0.30 0.31 0.34 0.33 0.34 0.34 0.35 0.35 0.33
0.89 0.89 0.93 0.95 0.96 0.98 0.99 0.99 0.98 0.96 0.94 0.92 0.91 0.89 0.91 0.89 0.85 0.82 0.81 0.80 0.79 0.78 0.76 0.74 0.72 0.69 0.68 0.67 0.66 0.61 0.59 0.63 0.66 0.65 0.56 0.47 0.42 0.41 0.43 0.42 0.41 0.41 0.38 0.33 0.32 0.34 0.32 0.31 0.29 0.26 0.24 0.25 0.26 0.27 0.30 0.32 0.33 0.32 0.32 0.32 0.30 0.25 0.27 0.30 0.29 0.33 0.34 0.32 0.31 0.31 0.31 0.30 0.31 0.31 0.30 0.29 0.30 0.31 0.33 0.33 0.32 0.34 0.33 0.33 0.32
0.89 0.89 0.90 0.92 0.94 0.96 0.97 0.95 0.95 0.94 0.93 0.91 0.89 0.88 0.86 0.86 0.86 0.85 0.83 0.80 0.78 0.77 0.76 0.75 0.74 0.71 0.71 0.69 0.71 0.70 0.71 0.72 0.68 0.60 0.52 0.46 0.41 0.41 0.42 0.43 0.42 0.41 0.40 0.33 0.31 0.34 0.35 0.32 0.30 0.30 0.29 0.29 0.30 0.31 0.30 0.29 0.28 0.28 0.26 0.27 0.29 0.29 0.29 0.28 0.31 0.34 0.32 0.32 0.33 0.32 0.32 0.31 0.31 0.31 0.31 0.31 0.30 0.31 0.33 0.34 0.33 0.34 0.34 0.34 0.33
0.87 0.87 0.90 0.93 0.94 0.95 0.95 0.95 0.94 0.92 0.91 0.91 0.90 0.87 0.84 0.81 0.82 0.85 0.84 0.83 0.79 0.75 0.73 0.73 0.73 0.70 0.70 0.73 0.74 0.74 0.75 0.74 0.68 0.59 0.53 0.48 0.44 0.42 0.42 0.42 0.41 0.40 0.38 0.34 0.30 0.31 0.31 0.30 0.30 0.30 0.31 0.31 0.30 0.31 0.32 0.31 0.30 0.29 0.28 0.26 0.26 0.28 0.29 0.30 0.33 0.35 0.33 0.34 0.34 0.32 0.31 0.31 0.32 0.32 0.32 0.32 0.32 0.33 0.33 0.33 0.35 0.35 0.35 0.35 0.34
0.89 0.89 0.90 0.92 0.93 0.92 0.93 0.93 0.92 0.91 0.89 0.87 0.85 0.84 0.82 0.80 0.79 0.80 0.85 0.87 0.83 0.78 0.75 0.73 0.71 0.70 0.70 0.72 0.75 0.75 0.71 0.67 0.63 0.58 0.54 0.51 0.47 0.43 0.42 0.41 0.40 0.39 0.38 0.34 0.30 0.28 0.26 0.25 0.26 0.29 0.30 0.30 0.31 0.32 0.31 0.30 0.29 0.29 0.29 0.29 0.30 0.29 0.30 0.32 0.35 0.35 0.34 0.33 0.33 0.34 0.34 0.34 0.35 0.34 0.33 0.34 0.33 0.32 0.33 0.34 0.35 0.35 0.35 0.35 0.35
0.92 0.92 0.92 0.93 0.92 0.91 0.91 0.92 0.91 0.90 0.91 0.89 0.88 0.84 0.82 0.82 0.83 0.81 0.79 0.78 0.79 0.79 0.76 0.72 0.70 0.70 0.69 0.69 0.70 0.68 0.66 0.63 0.60 0.58 0.55 0.51 0.46 0.43 0.41 0.39 0.39 0.39 0.37 0.33 0.30 0.26 0.26 0.27 0.28 0.30 0.32 0.33 0.33 0.33 0.32 0.32 0.32 0.32 0.32 0.31 0.31 0.32 0.33 0.37 0.38 0.37 0.39 0.39 0.37 0.36 0.36 0.35 0.35 0.34 0.34 0.34 0.35 0.35 0.35 0.35 0.35 0.35 0.35 0.35 0.34
0.94 0.91 0.94 0.95 0.94 0.93 0.93 0.92 0.91 0.90 0.89 0.88 0.88 0.86 0.84 0.85 0.86 0.83 0.81 0.78 0.75 0.71 0.70 0.69 0.69 0.69 0.66 0.64 0.65 0.63 0.59 0.57 0.56 0.54 0.50 0.44 0.39 0.38 0.38 0.36 0.34 0.33 0.32 0.30 0.29 0.28 0.26 0.26 0.28 0.31 0.33 0.34 0.35 0.35 0.35 0.35 0.34 0.32 0.30 0.30 0.31 0.31 0.34 0.37 0.39 0.39 0.37 0.37 0.37 0.36 0.35 0.34 0.35 0.35 0.36 0.36 0.36 0.36 0.36 0.36 0.36 0.36 0.35 0.35 0.35
0.93 0.90 0.91 0.93 0.93 0.93 0.93 0.92 0.93 0.93 0.91 0.90 0.89 0.87 0.85 0.86 0.88 0.86 0.85 0.83 0.77 0.71 0.68 0.67 0.66 0.65 0.62 0.58 0.58 0.59 0.56 0.53 0.50 0.47 0.42 0.39 0.36 0.35 0.31 0.30 0.30 0.30 0.29 0.28 0.27 0.28 0.30 0.30 0.30 0.30 0.33 0.34 0.34 0.35 0.35 0.34 0.34 0.33 0.33 0.34 0.33 0.33 0.35 0.36 0.37 0.37 0.38 0.37 0.36 0.35 0.34 0.35 0.36 0.37 0.38 0.38 0.38 0.37 0.37 0.37 0.37 0.36 0.36 0.36 0.36
0.93 0.92 0.92 0.93 0.94 0.94 0.95 0.95 0.93 0.93 0.92 0.92 0.90 0.89 0.87 0.85 0.84 0.81 0.79 0.79 0.76 0.71 0.68 0.69 0.67 0.64 0.62 0.60 0.59 0.58 0.56 0.52 0.49 0.47 0.45 0.41 0.37 0.33 0.31 0.30 0.31 0.32 0.32 0.31 0.29 0.28 0.26 0.27 0.31 0.34 0.35 0.36 0.36 0.36 0.37 0.37 0.37 0.36 0.35 0.34 0.34 0.36 0.38 0.38 0.38 0.38 0.37 0.35 0.35 0.35 0.36 0.37 0.38 0.39 0.38 0.36 0.35 0.36 0.36 0.37 0.38 0.37 0.37 0.37 0.36
0.94 0.92 0.93 0.94 0.96 0.96 0.96 0.95 0.95 0.95 0.94 0.93 0.91 0.89 0.87 0.84 0.82 0.81 0.79 0.79 0.77 0.76 0.73 0.71 0.67 0.63 0.57 0.55 0.55 0.52 0.48 0.46 0.46 0.46 0.45 0.45 0.42 0.37 0.32 0.33 0.33 0.33 0.33 0.33 0.32 0.31 0.29 0.28 0.28 0.29 0.31 0.34 0.35 0.37 0.39 0.39 0.39 0.37 0.36 0.37 0.38 0.38 0.37 0.37 0.37 0.37 0.37 0.36 0.37 0.39 0.39 0.38 0.37 0.37 0.37 0.37 0.36 0.37 0.37 0.38 0.38 0.38 0.38 0.38 0.38
0.97 0.95 0.95 0.96 0.96 0.95 0.95 0.95 0.95 0.95 0.94 0.93 0.91 0.89 0.86 0.85 0.86 0.84 0.81 0.80 0.77 0.75 0.73 0.73 0.69 0.60 0.55 0.53 0.50 0.50 0.47 0.45 0.44 0.44 0.44 0.45 0.46 0.44 0.41 0.35 0.33 0.33 0.34 0.34 0.34 0.34 0.33 0.33 0.34 0.34 0.35 0.35 0.37 0.38 0.39 0.38 0.38 0.38 0.39 0.39 0.39 0.40 0.40 0.39 0.39 0.39 0.39 0.39 0.38 0.38 0.37 0.37 0.36 0.37 0.37 0.37 0.38 0.38 0.38 0.38 0.39 0.39 0.38 0.37 0.38
0.95 0.95 0.96 0.97 0.95 0.94 0.94 0.93 0.92 0.92 0.91 0.90 0.89 0.88 0.85 0.85 0.84 0.83 0.81 0.77 0.74 0.72 0.70 0.70 0.66 0.60 0.56 0.52 0.49 0.46 0.42 0.42 0.44 0.44 0.43 0.44 0.44 0.45 0.45 0.42 0.38 0.36 0.34 0.33 0.34 0.36 0.36 0.36 0.36 0.36 0.37 0.38 0.39 0.39 0.38 0.37 0.38 0.38 0.39 0.38 0.38 0.38 0.38 0.38 0.38 0.39 0.38 0.38 0.38 0.38 0.38 0.38 0.38 0.38 0.37 0.37 0.38 0.39 0.38 0.38 0.38 0.38 0.38 0.39 0.40
0.94 0.93 0.93 0.94 0.93 0.92 0.90 0.89 0.87 0.87 0.87 0.86 0.87 0.86 0.85 0.83 0.84 0.83 0.79 0.74 0.74 0.74 0.73 0.71 0.65 0.58 0.53 0.50 0.45 0.43 0.43 0.43 0.45 0.47 0.47 0.46 0.47 0.48 0.48 0.46 0.44 0.42 0.41 0.40 0.37 0.35 0.34 0.34 0.35 0.37 0.37 0.37 0.36 0.35 0.36 0.38 0.39 0.40 0.39 0.39 0.39 0.38 0.38 0.38 0.40 0.40 0.39 0.38 0.38 0.39 0.39 0.39 0.39 0.39 0.38 0.39 0.40 0.39 0.39 0.39 0.40 0.40 0.40 0.40 0.39
0.93 0.91 0.90 0.90 0.88 0.86 0.83 0.82 0.82 0.83 0.83 0.83 0.84 0.84 0.85 0.84 0.83 0.81 0.77 0.75 0.75 0.73 0.71 0.68 0.64 0.59 0.56 0.53 0.49 0.47 0.46 0.47 0.49 0.50 0.50 0.50 0.49 0.48 0.48 0.48 0.47 0.45 0.44 0.43 0.40 0.36 0.34 0.33 0.34 0.35 0.34 0.33 0.32 0.33 0.36 0.39 0.41 0.41 0.40 0.39 0.38 0.38 0.38 0.39 0.40 0.40 0.39 0.39 0.40 0.39 0.40 0.41 0.41 0.41 0.41 0.41 0.42 0.42 0.42 0.41 0.41 0.41 0.41 0.41 0.41
0.91 0.89 0.89 0.87 0.85 0.83 0.80 0.81 0.81 0.81 0.81 0.80 0.81 0.82 0.83 0.82 0.82 0.81 0.76 0.73 0.72 0.71 0.69 0.65 0.60 0.57 0.57 0.56 0.52 0.49 0.50 0.52 0.52 0.52 0.53 0.51 0.50 0.49 0.47 0.46 0.46 0.45 0.44 0.42 0.39 0.35 0.34 0.32 0.31 0.31 0.31 0.31 0.34 0.36 0.38 0.39 0.39 0.39 0.39 0.38 0.38 0.39 0.39 0.40 0.40 0.40 0.41 0.41 0.41 0.41 0.41 0.41 0.41 0.41 0.42 0.42 0.43 0.44 0.43 0.43 0.43 0.42 0.42 0.43 0.42
0.86 0.85 0.84 0.84 0.83 0.83 0.82 0.81 0.80 0.80 0.80 0.81 0.81 0.78 0.78 0.78 0.78 0.76 0.74 0.73 0.72 0.71 0.67 0.62 0.59 0.58 0.54 0.52 0.50 0.48 0.50 0.52 0.52 0.53 0.52 0.50 0.47 0.46 0.46 0.46 0.45 0.42 0.40 0.37 0.35 0.34 0.33 0.33 0.33 0.35 0.37 0.39 0.42 0.45 0.46 0.46 0.46 0.44 0.43 0.42 0.41 0.40 0.40 0.40 0.40 0.41 0.42 0.41 0.41 0.41 0.41 0.42 0.42 0.44 0.44 0.44 0.45 0.44 0.43 0.43 0.43 0.43 0.43 0.43 0.43
0.85 0.83 0.82 0.81 0.81 0.81 0.80 0.80 0.80 0.80 0.80 0.78 0.77 0.77 0.76 0.75 0.74 0.74 0.74 0.74 0.73 0.69 0.65 0.62 0.58 0.55 0.49 0.47 0.46 0.45 0.47 0.49 0.52 0.53 0.52 0.50 0.48 0.47 0.47 0.46 0.43 0.38 0.36 0.34 0.34 0.34 0.34 0.36 0.38 0.42 0.44 0.45 0.46 0.47 0.47 0.49 0.49 0.50 0.49 0.48 0.45 0.43 0.42 0.42 0.43 0.44 0.44 0.43 0.42 0.43 0.43 0.43 0.44 0.45 0.45 0.45 0.45 0.44 0.44 0.44 0.45 0.44 0.44 0.44 0.42
0.84 0.83 0.81 0.81 0.80 0.80 0.80 0.80 0.80 0.80 0.79 0.78 0.77 0.77 0.77 0.77 0.76 0.76 0.74 0.72 0.70 0.67 0.63 0.60 0.56 0.53 0.51 0.50 0.50 0.50 0.52 0.55 0.55 0.55 0.52 0.50 0.48 0.48 0.48 0.45 0.41 0.37 0.36 0.35 0.36 0.38 0.41 0.44 0.45 0.46 0.47 0.48 0.49 0.49 0.50 0.51 0.53 0.53 0.51 0.48 0.46 0.45 0.45 0.46 0.46 0.46 0.46 0.45 0.44 0.44 0.45 0.45 0.45 0.45 0.46 0.46 0.46 0.46 0.46 0.46 0.46 0.45 0.43 0.42 0.40
0.81 0.81 0.81 0.81 0.80 0.80 0.80 0.80 0.78 0.78 0.77 0.76 0.76 0.75 0.74 0.73 0.74 0.74 0.73 0.71 0.68 0.66 0.63 0.61 0.59 0.56 0.55 0.54 0.54 0.54 0.56 0.56 0.55 0.52 0.50 0.50 0.50 0.49 0.46 0.42 0.39 0.38 0.39 0.43 0.45 0.47 0.49 0.50 0.50 0.51 0.50 0.50 0.50 0.52 0.54 0.53 0.51 0.47 0.46 0.46 0.46 0.46 0.46 0.46 0.47 0.46 0.46 0.47 0.47 0.47 0.47 0.47 0.47 0.47 0.47 0.47 0.47 0.47 0.46 0.45 0.44 0.42 0.40 0.38 0.36
0.77 0.77 0.77 0.77 0.77 0.77 0.77 0.78 0.78 0.76 0.74 0.73 0.73 0.73 0.73 0.73 0.73 0.73 0.70 0.69 0.69 0.68 0.66 0.64 0.61 0.60 0.58 0.56 0.56 0.56 0.56 0.55 0.53 0.52 0.53 0.52 0.50 0.47 0.42 0.40 0.42 0.46 0.50 0.51 0.52 0.52 0.52 0.52 0.51 0.51 0.50 0.51 0.51 0.52 0.52 0.49 0.47 0.46 0.45 0.45 0.46 0.46 0.46 0.47 0.48 0.47 0.48 0.48 0.49 0.49 0.49 0.48 0.48 0.48 0.48 0.47 0.46 0.45 0.43 0.42 0.40 0.38 0.35 0.31 0.30
0.76 0.76 0.77 0.77 0.77 0.78 0.78 0.78 0.76 0.75 0.74 0.74 0.74 0.74 0.74 0.73 0.72 0.72 0.72 0.72 0.71 0.69 0.66 0.63 0.61 0.58 0.57 0.56 0.57 0.57 0.57 0.56 0.55 0.54 0.50 0.47 0.45 0.45 0.47 0.48 0.49 0.51 0.51 0.51 0.52 0.52 0.53 0.53 0.53 0.52 0.51 0.51 0.49 0.48 0.47 0.46 0.45 0.45 0.45 0.46 0.46 0.46 0.47 0.48 0.48 0.48 0.48 0.49 0.49 0.50 0.49 0.48 0.47 0.47 0.46 0.44 0.43 0.42 0.39 0.36 0.33 0.29 0.27 0.28 0.28
0.76 0.76 0.76 0.77 0.78 0.78 0.78 0.77 0.76 0.75 0.74 0.74 0.73 0.72 0.72 0.73 0.72 0.72 0.71 0.70 0.68 0.64 0.61 0.59 0.58 0.57 0.57 0.57 0.57 0.57 0.55 0.53 0.50 0.48 0.46 0.47 0.50 0.53 0.54 0.53 0.52 0.52 0.51 0.52 0.52 0.53 0.53 0.53 0.53 0.52 0.51 0.50 0.49 0.48 0.47 0.47 0.47 0.47 0.47 0.47 0.47 0.47 0.47 0.47 0.48 0.48 0.48 0.48 0.49 0.49 0.48 0.46 0.45 0.43 0.42 0.39 0.37 0.34 0.30 0.26 0.24 0.26 0.27 0.27 0.27
0.79 0.79 0.79 0.78 0.78 0.78 0.76 0.74 0.74 0.74 0.73 0.72 0.72 0.70 0.70 0.69 0.69 0.68 0.66 0.63 0.59 0.58 0.57 0.57 0.58 0.59 0.58 0.57 0.56 0.55 0.53 0.50 0.47 0.45 0.46 0.50 0.52 0.53 0.52 0.52 0.52 0.52 0.52 0.53 0.53 0.53 0.53 0.54 0.53 0.52 0.50 0.49 0.48 0.47 0.47 0.46 0.46 0.46 0.46 0.46 0.46 0.46 0.46 0.46 0.46 0.46 0.46 0.46 0.47 0.47 0.45 0.43 0.40 0.36 0.33 0.31 0.28 0.25 0.24 0.25 0.28 0.28 0.29 0.28 0.27
Wind_Speed
15 14 14 14 14 14 13 13 12 12 13 13 13 13 13 12 12 11 12 12 12 12 12 12 11 11 11 10 10 10 10 9 8 7 7 6 5 5 5 5 5 6 6 6 7 8 9 9 9 9 10 11 12 13 14 15 15 16 16 17 18 20 20 21 22 23 24 25 26 28 30 32 32 33 34 36 37 37 37 38 38 37 37 38 39
15 14 14 14 14 14 13 12 12 12 13 14 13 13 12 12 12 11 11 12 12 12 12 11 11 11 11 10 10 10 9 9 8 8 7 6 6 5 5 5 6 6 6 7 7 8 8 9 9 9 10 11 12 13 14 15 15 16 16 17 19 20 20 21 22 23 24 25 26 27 29 31 32 33 34 35 36 37 36 37 38 37 37 38 38
15 14 14 14 14 14 13 12 13 13 13 14 13 12 12 12 11 11 11 12 12 12 12 11 11 11 10 10 10 10 9 9 8 8 7 7 6 6 6 6 6 6 6 7 7 8 8 9 9 10 10 11 12 13 14 14 15 15 16 18 19 20 20 21 21 22 23 24 26 27 29 30 32 33 34 35 36 36 36 36 37 37 37 38 38
15 14 14 14 13 13 12 13 13 13 14 14 13 12 11 11 10 10 10 12 12 12 12 12 11 11 10 10 10 10 10 9 9 8 8 7 7 7 7 6 7 7 7 7 8 8 8 9 9 10 10 11 12 13 13 14 15 15 17 18 19 19 20 20 21 22 23 24 26 27 28 30 31 32 34 34 35 35 36 36 35 36 36 37 37
15 14 14 14 14 13 13 13 14 14 14 14 13 12 11 11 10 10 10 11 12 12 12 11 11 11 10 11 10 10 10 10 9 9 8 8 8 7 7 7 7 7 8 8 8 8 9 9 9 10 11 11 12 13 13 14 15 16 17 18 19 19 20 20 21 21 22 24 25 27 28 29 31 32 33 34 34 34 35 36 35 35 36 37 37
15 15 14 14 14 13 13 14 15 15 14 14 13 13 12 11 10 10 10 11 12 12 12 11 11 11 11 11 11 11 11 10 10 9 9 9 9 8 8 8 8 8 8 8 8 9 9 9 10 10 11 11 12 13 13 14 15 16 17 18 18 19 19 20 20 21 22 23 24 26 27 29 30 31 33 34 34 34 35 35 35 35 36 36 37
16 15 15 15 14 14 14 15 15 15 15 14 14 13 12 11 11 10 10 11 12 12 12 12 11 11 11 11 11 11 11 11 10 10 10 10 10 9 9 9 9 9 9 9 9 9 9 10 10 10 11 12 12 13 13 13 15 16 17 18 18 19 19 19 20 21 21 22 24 25 27 28 30 31 33 34 34 34 34 35 35 36 36 36 36
16 15 15 15 15 15 15 15 16 16 15 15 14 14 13 12 11 11 11 11 12 12 12 12 12 11 12 12 12 12 12 11 11 11 11 11 10 10 10 9 9 9 9 9 9 9 10 10 10 10 11 11 12 12 13 13 14 15 16 17 18 18 19 19 20 21 21 22 23 25 26 27 29 30 32 33 34 34 34 35 35 36 36 36 35
16 15 15 15 16 15 15 16 16 16 16 15 14 14 14 12 12 11 11 12 12 12 12 12 12 12 12 12 12 12 12 12 12 12 12 11 11 11 10 10 10 10 9 10 10 10 10 10 10 10 10 11 11 12 12 13 14 15 16 17 18 18 18 19 20 20 21 22 23 24 25 26 28 30 32 33 34 34 34 34 34 35 35 35 35
16 16 16 16 16 16 16 16 16 16 16 15 15 15 14 13 13 12 12 13 13 12 12 12 12 12 13 13 13 13 13 13 13 13 12 12 12 11 11 11 11 10 10 10 10 10 10 10 10 10 10 11 11 11 12 13 14 14 15 16 17 18 18 18 19 20 21 21 22 24 25 26 28 29 31 32 33 34 34 34 34 35 35 35 34
17 16 16 16 17 16 16 17 17 17 16 16 16 15 14 14 14 14 14 14 14 13 13 13 13 13 13 13 14 14 14 14 13 13 13 12 12 12 12 12 12 11 11 11 10 11 11 10 10 11 11 11 11 11 12 12 13 14 15 16 16 17 18 18 19 21 21 21 22 23 24 26 27 28 30 31 32 33 33 33 34 35 35 35 35
17 17 16 17 17 17 17 17 17 17 17 17 16 16 15 15 15 14 15 15 15 15 15 14 14 14 14 15 15 15 15 15 14 14 13 13 13 13 13 12 12 12 12 11 11 12 11 11 11 11 11 12 12 12 12 12 13 13 14 15 15 16 17 18 19 20 21 21 22 23 24 25 26 28 29 31 32 32 33 32 33 34 34 34 35
18 17 17 17 18 18 17 17 17 17 17 17 17 16 16 16 15 15 16 16 16 16 16 16 16 15 15 16 16 16 16 15 15 15 15 14 14 14 13 13 13 13 12 12 12 12 12 11 11 11 11 12 12 12 12 12 13 14 14 15 15 16 17 18 19 20 21 21 22 23 24 25 26 27 29 30 31 32 32 32 33 33 34 34 34
18 18 17 17 18 18 17 17 17 17 17 17 17 17 17 16 16 16 16 17 17 17 17 17 16 16 16 16 16 16 16 16 16 16 16 15 15 14 14 14 13 13 13 13 13 13 12 12 11 11 11 12 12 12 12 13 13 14 14 15 15 16 17 18 19 20 21 21 22 23 24 25 26 27 29 30 31 32 31 32 32 33 33 33 33
19 18 17 18 18 18 18 18 17 18 18 18 18 18 18 17 17 17 17 17 18 17 17 17 17 17 17 17 17 17 17 17 17 16 16 16 16 15 14 14 14 14 13 13 13 13 12 11 11 11 11 11 12 12 12 13 13 14 14 14 15 15 16 18 19 20 21 21 22 23 24 26 27 28 29 30 31 31 31 31 31 32 32 31 32
20 19 18 18 18 18 18 18 18 18 18 18 19 19 18 18 18 18 18 18 18 18 18 18 18 18 18 18 17 17 17 18 17 17 17 17 17 17 16 15 15 14 14 14 13 13 12 11 11 11 11 11 12 12 12 13 14 14 14 14 15 15 16 18 19 20 21 21 22 24 25 26 27 28 28 30 31 31 30 30 30 31 31 31 31
21 20 19 19 19 19 19 19 19 19 18 19 19 19 19 19 19 19 19 19 19 19 19 19 19 19 18 18 18 18 18 18 18 18 18 18 18 18 17 16 16 15 15 14 14 13 12 12 12 12 12 12 12 12 13 13 14 14 14 14 15 15 17 18 19 20 21 21 23 24 25 26 27 27 28 29 30 31 30 29 30 31 31 31 31
21 21 20 20 20 20 20 20 20 19 19 20 20 19 19 20 20 20 20 20 19 19 19 19 19 19 19 19 19 19 19 19 19 19 19 18 18 17 16 15 16 15 15 15 14 13 13 12 12 12 12 12 12 13 13 14 14 14 14 14 15 16 17 19 20 20 21 22 23 24 24 25 26 26 27 27 28 30 30 30 30 30 30 31 31
22 21 21 20 20 20 20 20 20 21 21 21 20 20 20 20 20 20 20 20 20 20 20 19 19 19 19 19 19 20 20 20 20 20 19 18 17 16 15 15 16 16 16 15 15 14 14 13 13 13 12 12 13 13 14 14 14 14 14 14 15 16 18 19 20 20 21 22 23 23 24 25 25 26 27 27 27 29 30 29 30 30 30 30 31
22 22 21 21 20 20 20 21 21 21 21 21 21 21 21 20 21 21 21 20 20 20 20 20 19 19 20 20 19 20 20 20 20 20 19 18 18 17 15 15 16 16 16 16 15 15 14 14 14 14 13 13 13 14 14 14 14 14 15 15 15 16 18 19 19 20 21 22 23 23 23 24 25 26 27 27 28 29 30 29 29 29 29 30 30
22 22 22 21 21 21 21 21 20 20 21 20 20 20 20 20 20 21 21 20 20 19 19 19 19 19 19 20 20 20 21 21 21 21 20 19 19 17 15 15 16 16 15 15 15 15 15 15 15 14 14 14 14 14 14 15 15 15 15 15 16 17 18 19 19 20 21 22 22 23 23 24 24 25 27 27 27 29 29 29 30 29 29 30 30
22 22 22 21 22 21 21 20 20 20 20 20 19 19 19 19 20 20 20 20 19 19 19 19 19 19 20 20 20 21 21 21 21 20 20 20 20 18 16 15 15 15 15 16 16 15 15 15 15 15 15 14 14 14 15 15 16 15 15 15 16 18 18 19 19 20 21 21 22 23 23 24 24 25 26 27 27 28 29 29 29 30 30 30 30
22 22 20 19 19 19 19 19 19 19 20 20 19 19 19 19 20 20 20 20 20 20 19 20 20 20 21 21 21 21 21 21 21 20 20 21 21 19 18 17 16 15 16 16 16 16 16 16 16 16 15 15 15 15 16 16 16 16 16 16 17 18 18 19 19 20 21 21 22 22 23 24 24 25 26 26 27 28 28 29 29 29 30 30 30
22 22 21 20 20 19 19 20 20 20 20 20 20 20 20 20 20 20 20 20 20 20 20 20 20 20 21 21 21 21 20 20 21 20 21 21 21 20 19 19 17 16 15 15 16 16 16 16 17 16 15 15 16 16 17 17 17 17 17 17 18 18 18 19 19 20 20 21 22 22 23 24 24 25 25 26 26 27 27 28 29 29 29 30 30
22 22 21 22 21 21 20 20 20 20 20 20 20 20 19 20 20 20 20 20 20 19 20 20 20 20 21 21 21 20 20 20 21 21 21 21 21 21 20 20 19 18 17 16 16 16 16 16 17 17 16 16 17 17 17 18 18 18 18 18 18 18 19 19 20 20 21 21 22 22 23 24 24 25 25 26 26 26 26 27 28 28 29 29 29
21 21 22 21 21 21 20 20 20 20 20 19 19 19 19 20 20 20 20 20 20 20 20 20 20 20 21 21 20 20 20 20 21 22 22 21 21 21 21 21 21 20 19 18 17 17 17 18 18 17 17 17 18 18 18 18 19 19 19 19 19 19 19 19 20 20 21 22 22 23 23 23 24 24 25 25 26 26 26 27 27 28 28 29 29
20 21 21 21 21 21 21 21 21 21 20 20 20 20 20 20 20 20 21 21 20 20 20 20 20 21 21 21 20 20 20 21 21 22 22 22 22 22 22 22 21 21 21 20 20 19 19 19 19 19 19 19 19 19 20 20 19 19 19 19 19 19 19 20 20 21 21 22 23 23 23 23 24 24 25 25 26 26 26 27 27 28 28 29 29
19 20 21 22 22 22 22 22 21 21 21 21 21 21 21 21 21 21 21 21 21 21 20 20 21 21 21 20 20 20 21 21 21 22 22 23 23 22 22 22 22 22 22 21 21 21 20 20 20 20 20 20 20 20 20 20 20 20 20 20 20 20 20 21 21 21 21 22 23 23 23 23 24 24 25 25 26 26 27 27 27 28 28 29 29
20 20 21 22 23 23 23 23 22 22 22 22 22 21 21 22 21 21 22 22 21 21 21 21 21 21 21 21 21 21 22 22 22 22 23 23 23 23 23 23 23 23 22 22 21 21 20 20 20 21 21 21 21 21 21 21 21 21 21 21 21 21 22 22 22 22 21 22 23 23 23 24 24 25 25 25 26 27 27 27 28 28 28 28 29
20 21 21 22 23 23 24 24 24 23 23 23 22 21 21 22 22 22 22 22 22 21 21 21 21 21 21 22 22 23 23 23 23 23 23 24 24 23 23 23 23 23 22 22 22 21 21 21 21 21 22 22 22 22 22 22 22 22 21 21 21 22 22 22 22 22 22 22 23 23 24 25 25 25 25 26 26 27 27 27 28 28 28 28 29
20 21 22 22 23 24 24 24 24 24 24 24 23 22 22 22 22 22 23 23 22 22 21 20 20 21 21 22 22 23 23 23 23 23 24 24 24 24 23 23 23 22 22 22 23 22 21 22 22 22 23 23 23 23 23 22 22 22 22 22 22 22 22 22 22 22 23 23 24 24 24 25 25 26 26 26 27 27 27 27 27 27 28 28 29
20 21 21 22 23 24 24 24 24 24 24 24 23 23 23 23 23 22 23 23 23 23 22 22 21 21 22 22 22 22 23 23 23 24 24 24 25 25 24 24 23 23 23 23 24 24 23 23 23 23 24 24 24 24 23 23 23 23 23 23 23 22 22 23 23 23 24 25 25 24 25 25 26 26 27 27 28 28 27 27 28 28 28 28 29
20 21 21 22 23 23 24 24 24 24 24 24 24 23 23 23 23 23 22 23 23 23 23 23 23 23 23 22 21 21 22 23 23 24 25 25 26 25 25 25 24 24 24 24 25 25 25 24 25 25 25 25 25 25 24 24 24 24 24 23 23 23 23 24 23 24 25 25 25 25 26 26 27 27 28 28 28 28 28 28 28 28 28 29 29
21 21 21 22 22 23 23 24 24 24 24 25 24 24 23 23 24 24 24 24 24 24 24 25 25 24 24 23 22 22 23 24 25 25 26 26 26 26 26 26 26 26 26 26 26 26 26 26 26 26 26 26 26 26 25 25 24 24 24 24 24 24 24 24 24 25 25 26 26 26 26 27 28 28 28 28 28 28 28 28 28 28 28 29 30
21 20 21 21 22 23 23 24 25 24 24 24 24 24 23 23 23 24 25 25 25 25 25 25 26 25 25 25 24 24 24 25 26 26 26 27 27 27 27 27 27 27 28 28 28 28 27 27 27 27 27 27 27 27 26 26 25 25 25 25 25 25 25 26 26 26 26 26 26 26 27 28 28 29 29 29 28 28 28 28 28 28 29 30 31
20 20 20 20 21 22 23 24 24 24 24 24 24 24 24 23 23 23 23 24 25 25 25 25 26 25 26 26 25 25 25 25 25 26 26 27 27 27 28 28 28 28 28 29 29 29 29 29 28 28 28 28 28 28 28 27 27 26 26 26 26 26 26 26 27 27 26 26 26 27 28 29 29 29 29 29 28 28 28 28 29 29 30 31 32
21 20 20 20 21 21 23 24 24 24 24 24 24 24 24 24 24 23 22 22 24 24 23 24 24 24 25 25 25 25 26 26 26 26 26 26 27 27 27 28 27 27 28 28 29 29 30 30 29 29 29 29 29 29 29 29 28 28 28 28 28 28 28 28 27 27 27 27 28 29 29 29 29 30 30 29 29 29 29 29 30 31 31 32 33
21 21 21 21 22 22 23 24 24 24 25 24 24 24 24 24 23 23 22 22 23 23 23 24 25 25 26 26 26 26 26 26 26 27 27 26 26 26 27 27 27 27 27 27 28 29 29 29 30 30 30 30 30 29 29 29 29 29 29 29 29 29 29 29 29 29 29 29 30 30 30 30 30 30 30 30 30 30 30 30 31 32 33 34 34
22 21 21 22 22 22 23 23 23 24 25 25 25 24 24 23 23 23 23 23 23 24 23 23 24 26 27 27 27 26 26 26 27 28 28 28 27 27 27 27 27 27 27 27 28 28 29 29 29 30 30 30 30 30 30 30 30 30 29 29 29 29 29 29 30 30 30 30 30 30 30 31 31 31 31 31 31 31 31 32 33 34 34 34 34
21 21 21 22 22 22 22 22 23 23 25 25 24 24 23 24 24 23 23 23 23 24 23 23 24 25 26 27 26 26 26 26 27 27 28 29 29 29 28 28 28 28 28 28 29 29 29 29 29 29 30 30 30 30 31 30 30 30 30 29 30 30 30 30 30 31 30 30 31 31 31 31 31 31 31 31 32 32 33 34 34 35 35 35 35
21 21 21 22 22 22 21 21 22 23 23 24 24 24 24 24 24 24 23 23 22 23 23 23 24 25 25 25 26 26 25 25 26 27 28 28 29 29 30 30 29 29 29 29 30 30 29 29 29 29 29 29 30 30 30 30 30 29 29 30 30 30 31 31 31 31 31 31 31 31 32 32 32 32 32 32 33 34 34 34 34 34 35 36 37
20 20 21 21 21 21 20 20 21 21 22 23 23 24 24 23 23 23 23 23 22 22 22 23 23 23 24 24 24 25 24 24 25 25 26 27 28 29 29 29 30 30 29 29 30 29 29 29 29 29 29 29 29 29 30 30 29 29 30 30 31 31 31 31 31 31 31 31 31 31 32 32 32 32 33 34 34 34 34 34 35 35 36 37 37
20 19 20 20 21 20 20 20 20 20 21 22 22 22 22 22 22 22 22 22 22 22 22 22 22 22 22 22 23 24 23 23 24 24 25 26 27 27 28 28 29 29 29 29 29 29 28 28 29 29 29 29 29 29 29 29 30 30 31 31 31 31 31 31 31 30 30 31 31 32 32 32 33 33 34 34 34 34 34 35 36 36 37 37 38
19 19 20 20 20 20 20 19 19 19 20 21 21 21 21 21 21 22 22 21 21 21 21 21 21 21 21 22 23 23 23 23 23 24 24 25 25 26 26 27 27 28 28 29 29 28 28 28 28 28 28 28 29 29 30 30 31 31 31 30 30 30 29 29 29 29 30 31 32 32 32 33 33 34 34 34 34 35 35 36 36 37 38 39 40
21 20 20 20 20 19 19 19 18 18 19 20 20 20 20 21 21 21 21 21 21 21 21 21 21 21 21 21 22 23 23 23 23 24 24 24 25 25 26 26 27 27 28 28 28 28 27 26 26 27 27 28 29 30 30 30 30 29 29 28 28 28 28 28 29 30 30 31 31 32 32 33 33 34 34 34 35 35 36 36 37 39 40 40 41
22 21 21 20 20 19 19 19 18 18 19 20 20 20 20 20 20 19 20 20 21 21 21 21 21 21 21 21 22 23 23 24 24 24 24 25 25 26 26 26 27 27 27 27 27 26 25 25 26 27 28 28 29 29 29 29 28 27 27 27 27 27 28 29 29 30 30 31 31 32 32 33 34 34 34 35 35 36 37 38 39 40 40 41 41
22 21 21 21 20 20 20 19 19 18 19 19 20 20 20 20 19 19 20 21 21 21 21 21 21 21 21 22 22 23 23 24 24 25 25 25 26 26 25 25 25 25 25 25 24 24 24 25 26 27 27 27 27 27 27 27 26 26 26 27 27 28 29 29 30 30 30 31 32 32 33 33 34 34 34 35 36 37 38 39 40 40 41 41 41
20 20 20 20 19 20 19 19 19 19 19 19 19 19 19 19 19 20 20 20 20 20 20 21 21 21 21 21 22 22 23 24 25 25 26 26 25 25 24 24 24 24 24 24 24 24 24 25 25 25 25 25 26 25 25 26 26 26 26 27 28 28 28 29 29 30 31 31 32 32 33 33 34 34 36 37 38 38 39 39 40 40 41 41 41
18 18 17 17 17 18 18 18 18 19 19 19 19 19 19 20 20 20 20 20 20 20 21 21 21 21 22 22 23 24 24 25 26 26 26 26 25 24 24 23 23 23 23 23 23 23 23 24 24 24 24 25 25 25 25 25 26 26 26 27 27 27 28 28 29 30 31 31 32 32 33 34 35 36 37 37 38 38 39 40 40 40 41 41 42
15 15 15 15 15 16 16 16 17 17 18 18 18 18 19 19 19 19 20 20 20 21 21 21 22 22 22 23 23 24 24 25 25 25 24 24 23 23 22 23 23 23 22 22 22 22 23 23 23 24 24 24 24 25 25 25 25 26 26 26 27 27 28 28 29 30 30 31 32 33 34 35 35 36 36 37 38 38 39 40 40 41 41 42 42
13 13 14 14 15 15 15 16 16 17 17 17 18 18 18 19 19 19 19 19 20 20 21 21 21 21 22 22 22 22 22 21 21 20 20 20 20 20 21 21 21 21 22 22 22 22 23 23 23 23 23 23 23 24 24 24 24 25 25 26 26 27 27 28 29 30 31 32 33 33 34 35 35 36 37 37 38 39 39 40 41 42 42 43 43
Wind_Direction
220 220 222 223 223 222 223 225 227 225 217 214 214 214 211 205 200 199 199 200 201 203 207 209 209 208 208 209 211 213 216 218 222 229 236 244 255 265 271 276 285 292 298 307 313 318 324 328 330 333 335 337 337 339 339 338 338 340 341 342 343 345 345 344 341 341 343 344 345 346 347 348 349 349 349 350 351 350 349 350 350 349 349 348 348
219 220 220 221 221 220 221 222 221 217 210 208 207 203 198 196 197 199 200 199 199 203 206 206 208 210 211 212 213 214 216 220 226 233 239 246 255 262 268 273 281 289 296 304 311 317 322 326 329 332 335 337 338 339 338 336 336 340 341 342 343 344 345 345 343 342 343 344 346 347 348 350 350 351 350 351 352 352 351 352 353 352 351 350 350
219 220 219 219 218 218 219 218 214 208 202 200 198 193 192 196 200 201 201 200 201 204 207 209 211 212 213 213 213 216 221 225 231 237 242 249 255 260 264 270 278 287 295 302 309 314 319 322 325 329 332 335 337 337 336 336 337 339 340 341 342 343 344 344 343 342 342 344 346 348 349 350 351 352 352 352 353 353 353 353 354 353 353 351 351
218 219 217 216 215 215 216 213 207 201 197 196 194 191 191 196 201 201 202 202 203 206 209 212 214 216 218 218 219 223 227 230 235 240 246 252 256 258 261 268 277 284 292 298 304 310 314 318 322 325 329 333 335 335 335 336 337 338 339 339 339 341 342 341 341 341 342 343 346 348 349 350 352 352 352 352 353 354 355 354 353 353 353 353 352
216 216 214 212 212 212 211 207 203 199 197 196 194 194 196 200 202 202 203 204 205 208 212 215 219 222 224 224 226 229 231 233 237 242 249 253 255 257 261 267 274 281 289 294 299 305 310 314 318 322 326 329 331 332 334 336 336 337 339 339 339 340 340 339 340 341 342 344 346 348 350 351 352 352 352 353 352 352 354 355 353 352 353 353 353
215 214 211 209 209 208 207 206 203 199 199 198 196 198 202 204 204 204 206 208 208 211 215 219 224 227 228 230 231 232 234 237 241 245 250 253 254 256 260 265 272 279 285 290 295 301 306 311 314 318 323 327 328 329 331 334 336 337 340 340 340 340 338 338 340 341 342 345 347 348 350 351 351 352 353 353 353 352 352 353 354 353 353 353 354
213 211 209 207 207 206 205 205 202 201 202 200 197 200 204 205 206 208 212 213 213 215 220 224 229 231 232 233 234 235 238 240 244 248 251 252 254 255 258 264 271 277 282 286 292 297 302 306 311 316 321 324 325 326 329 331 334 337 339 340 341 341 339 338 340 341 343 345 347 349 350 351 351 351 352 354 354 353 352 352 353 354 354 354 355
211 209 207 206 206 206 205 204 203 203 203 201 199 202 204 207 211 213 217 217 216 219 224 227 231 233 234 235 237 239 241 243 247 250 251 253 253 254 258 264 269 274 279 283 288 294 299 303 309 315 320 323 325 327 328 330 333 336 339 341 342 342 341 340 341 342 343 345 347 348 349 350 351 351 352 354 355 354 354 352 352 353 354 354 355
209 208 207 207 207 206 204 204 205 205 205 205 204 205 207 211 216 219 221 219 218 222 226 229 232 234 235 237 239 241 244 247 250 250 251 252 253 255 259 263 267 271 276 280 285 291 297 301 307 312 317 321 324 327 329 331 334 337 339 341 343 343 343 342 342 342 343 344 346 347 348 349 350 351 352 354 354 354 354 353 352 353 354 354 355
209 208 208 208 208 207 206 206 206 206 207 209 209 209 212 216 221 223 224 221 221 224 228 231 235 235 236 239 241 244 247 250 251 251 251 252 253 256 260 263 266 269 272 277 283 288 293 298 303 307 312 317 321 325 328 332 335 337 340 343 344 344 345 345 345 345 344 344 346 347 347 349 350 350 351 353 354 354 353 353 353 353 354 354 355
210 210 209 209 208 208 209 209 208 208 210 212 213 214 218 222 225 227 227 224 225 228 231 234 237 238 240 241 243 246 249 249 249 250 251 253 255 256 259 262 265 268 271 276 280 284 288 293 297 301 306 311 316 321 325 329 332 335 338 342 343 344 345 345 346 347 346 345 346 347 348 348 349 350 351 353 353 353 353 353 353 353 354 354 355
211 211 211 211 210 211 212 211 210 211 214 215 216 219 223 227 229 230 229 228 229 232 235 238 240 242 243 244 245 248 249 247 247 249 251 254 258 259 259 261 264 268 272 276 279 282 286 290 294 298 302 306 309 314 318 322 326 331 334 337 339 342 343 344 346 347 347 346 346 347 348 348 348 350 351 353 352 353 353 352 352 353 354 354 355
212 213 214 215 214 214 214 214 214 215 216 217 220 223 227 231 233 233 232 233 234 236 238 240 242 244 246 246 247 249 249 247 248 250 252 254 258 260 261 261 265 268 271 275 280 282 284 287 290 295 300 304 306 309 313 316 320 325 328 331 333 336 338 341 342 344 346 346 346 347 348 349 349 351 352 352 351 352 353 351 351 352 353 354 355
215 215 217 218 218 217 217 217 218 218 219 220 223 226 230 234 236 236 237 237 238 239 240 242 245 247 247 248 250 251 250 248 248 250 253 254 257 261 262 262 265 267 268 273 277 278 280 283 286 292 297 301 305 307 310 315 318 321 323 325 327 329 333 337 339 341 343 344 345 347 348 349 349 350 352 352 352 352 351 350 350 351 351 353 355
216 217 218 219 220 221 221 220 220 220 221 223 226 229 233 237 238 239 240 241 242 242 243 245 247 249 250 251 253 253 250 248 248 249 252 253 255 259 261 261 263 266 266 269 271 271 274 279 284 289 293 297 302 305 308 313 317 320 321 323 324 326 330 336 339 341 342 343 345 346 347 348 348 348 349 351 352 352 350 348 348 349 350 352 354
218 219 220 221 222 223 222 223 223 223 224 227 229 232 236 238 239 241 243 244 244 245 246 248 250 250 251 253 254 252 250 249 248 248 250 252 253 256 258 259 263 266 265 265 266 266 270 278 283 286 290 294 299 303 307 311 315 318 320 323 326 327 329 333 337 338 339 341 342 343 344 344 344 344 345 347 349 351 350 348 348 349 350 351 353
220 221 222 223 224 224 224 225 226 227 228 229 232 235 238 240 241 243 244 245 245 247 248 250 251 251 252 254 254 251 249 249 248 248 250 251 252 254 257 259 263 265 262 260 261 264 271 278 281 283 285 290 296 301 306 310 313 315 318 322 325 326 329 332 333 334 335 336 337 338 339 340 341 341 341 343 346 348 350 349 349 349 349 350 352
221 222 224 224 225 226 227 228 229 231 232 233 236 239 241 242 244 245 246 247 248 249 250 251 251 251 252 254 252 249 248 248 248 249 250 251 251 253 256 260 264 263 259 258 261 267 272 276 280 282 283 288 294 299 303 307 310 313 316 320 322 324 327 330 331 332 332 332 333 334 336 338 340 340 341 342 344 347 349 349 349 349 349 349 350
222 223 224 225 227 229 231 231 232 234 236 237 240 242 242 244 246 247 248 249 249 251 251 251 252 252 252 252 250 248 247 247 248 250 251 250 249 249 255 262 262 258 256 257 262 268 271 272 277 282 283 286 291 296 299 303 307 311 315 317 319 322 326 328 330 331 331 331 334 336 337 338 340 342 343 344 344 346 348 347 348 349 349 349 349
224 224 225 226 228 231 233 233 234 236 239 240 241 243 243 245 247 247 248 250 251 253 253 251 250 250 250 249 249 247 247 248 251 251 250 248 245 246 254 260 258 254 256 258 263 267 269 270 273 276 279 283 287 292 297 301 305 309 312 314 317 321 324 326 328 329 329 330 333 335 336 339 341 343 344 345 345 346 346 346 348 349 348 349 349
226 226 226 228 231 233 234 235 236 238 240 241 242 244 245 246 247 248 249 250 251 251 251 249 250 252 252 250 250 251 250 251 252 251 247 243 242 244 253 259 256 254 256 259 262 266 267 269 270 271 274 279 284 289 294 298 302 305 308 311 315 319 322 324 326 326 327 329 331 333 335 337 339 341 343 344 344 345 345 346 347 348 348 349 349
229 228 228 229 231 231 232 234 237 239 241 242 243 245 247 247 247 248 249 250 251 250 250 252 254 256 255 253 253 254 253 252 252 249 243 240 241 244 250 256 257 256 257 259 261 264 267 268 268 269 271 276 281 287 291 296 299 302 305 308 311 315 318 321 323 324 326 328 330 331 333 335 337 340 342 342 343 344 345 345 346 347 348 349 348
230 230 229 229 228 228 231 234 239 243 244 243 243 244 246 247 248 249 250 252 253 253 253 255 255 255 254 254 254 254 254 252 250 246 241 240 242 245 248 252 254 255 258 261 262 264 266 266 267 267 269 274 280 285 289 293 296 299 302 305 308 312 316 318 319 321 323 326 327 329 331 333 335 338 339 340 341 342 344 344 345 346 347 347 348
231 231 232 232 232 234 237 239 242 245 245 243 244 245 247 249 250 251 253 253 253 253 253 254 255 255 255 254 253 254 254 252 247 242 240 241 243 245 247 249 249 251 257 262 265 266 266 265 265 267 268 272 278 283 287 290 293 296 299 301 304 309 313 315 317 319 321 323 325 327 328 330 332 335 336 338 340 341 342 343 344 345 345 346 347
232 233 234 235 236 238 240 242 244 245 245 245 246 248 248 248 249 250 251 252 252 253 254 254 256 257 255 254 253 253 253 250 246 243 242 243 244 244 247 249 249 249 253 260 265 267 266 264 264 266 268 272 278 282 286 288 290 292 295 298 301 306 309 312 314 316 319 321 323 325 326 328 330 332 334 336 338 339 339 340 342 343 344 345 347
235 236 237 237 236 236 238 242 244 245 246 247 248 248 248 248 249 250 251 252 253 254 256 256 256 256 255 253 253 252 250 249 248 246 244 244 245 245 247 249 250 251 253 257 261 263 263 263 265 267 269 273 277 281 285 287 287 288 291 295 300 303 305 309 312 314 316 319 321 322 324 326 327 330 331 334 336 337 337 338 339 340 341 343 345
235 236 236 236 236 237 239 242 244 245 246 247 249 249 250 251 252 252 252 253 254 255 256 256 256 255 254 252 252 251 249 249 250 249 246 245 244 245 247 250 252 253 254 256 257 259 261 263 264 267 270 273 276 280 283 285 285 287 289 293 296 298 301 306 310 312 313 316 318 320 322 323 325 328 330 331 333 335 335 335 336 337 338 340 342
237 238 238 238 239 241 243 244 246 246 246 248 249 251 252 252 253 254 254 254 254 255 256 257 256 255 254 252 251 250 249 249 249 248 246 244 243 244 246 249 252 253 254 255 257 259 261 263 264 266 269 272 275 278 281 282 284 286 288 291 293 295 297 302 306 308 310 313 316 317 319 321 323 325 327 329 331 332 333 333 334 334 335 337 339
242 243 242 241 242 244 244 245 247 247 248 249 250 252 253 253 254 255 256 256 256 256 257 257 255 254 254 253 251 251 250 249 248 247 245 243 243 244 247 249 251 253 254 254 257 260 261 263 264 266 268 271 274 276 279 281 282 283 285 288 292 295 297 299 302 304 308 311 313 314 316 319 321 322 324 326 328 329 330 330 331 332 332 334 337
246 247 246 244 244 244 245 246 248 249 250 251 251 253 255 256 257 258 257 256 256 258 259 259 257 255 255 255 254 252 252 250 247 245 244 243 244 245 247 249 251 253 254 253 256 260 261 262 264 266 268 271 273 275 278 279 281 283 284 286 289 293 296 298 301 303 306 308 309 311 313 316 318 319 321 323 324 325 326 327 328 329 330 332 334
249 248 248 247 246 245 246 247 249 250 252 252 252 253 255 257 258 259 258 256 255 256 258 259 257 255 255 257 256 254 252 250 245 243 243 244 245 246 247 249 251 253 254 254 255 258 261 262 265 266 268 270 272 274 277 279 281 283 285 286 288 290 293 296 298 300 302 304 306 308 311 313 315 317 318 319 320 321 323 325 326 327 328 330 332
251 250 250 249 247 247 247 248 249 250 252 252 252 253 255 256 257 259 259 256 255 256 256 256 255 254 256 259 258 254 251 248 245 243 244 245 246 247 248 250 251 253 255 255 255 257 260 262 265 266 268 270 272 274 276 278 280 281 282 284 287 289 291 293 295 297 300 302 304 306 309 310 312 313 314 315 317 318 320 322 323 324 326 328 329
251 252 251 250 249 249 249 249 250 250 251 252 253 254 256 255 255 256 257 256 256 257 258 257 256 255 255 258 258 253 249 248 247 246 246 247 248 249 250 251 253 254 255 256 257 258 260 262 265 266 267 269 271 273 274 277 279 280 281 283 285 288 290 291 293 295 297 299 301 304 306 308 310 311 312 313 315 316 317 319 320 322 324 325 326
251 252 251 250 249 250 250 250 250 251 252 253 254 256 257 257 256 255 256 255 256 258 259 259 258 256 255 257 258 255 251 249 249 249 249 249 249 249 250 252 254 255 256 257 258 259 260 262 264 266 267 268 270 272 273 275 277 279 280 282 285 287 289 290 292 294 296 298 299 303 306 307 309 310 311 311 312 313 315 316 318 319 321 322 323
251 252 251 250 250 251 252 251 251 252 253 253 254 256 258 259 258 257 256 255 256 258 258 258 258 257 257 257 258 257 255 253 252 251 250 250 249 249 250 252 254 256 256 257 258 259 260 262 264 266 268 269 271 272 273 275 277 279 280 281 283 285 287 289 291 294 296 298 299 302 304 306 307 309 310 310 310 311 313 314 315 317 318 319 320
252 253 252 253 253 253 253 252 252 253 253 254 255 256 256 258 258 257 257 257 258 259 259 257 257 257 257 257 258 257 257 256 255 253 251 251 250 250 252 254 255 257 257 257 258 259 261 263 265 267 269 270 271 272 274 275 276 278 279 280 282 283 285 287 290 292 295 297 299 300 302 303 305 307 308 307 307 308 309 310 312 314 314 316 317
253 254 254 254 255 255 254 253 253 253 254 255 256 257 257 257 258 258 259 259 258 258 259 257 255 255 256 257 258 257 257 256 255 254 254 253 252 252 254 255 256 258 259 259 259 261 262 263 265 267 269 270 272 273 274 275 276 278 279 280 281 283 285 287 289 291 293 296 297 298 299 301 303 305 306 306 306 306 307 308 309 310 312 313 315
254 255 255 255 256 256 255 254 254 254 254 255 257 258 258 258 258 257 258 259 258 258 259 258 256 255 256 257 258 258 257 257 256 256 256 255 254 254 255 256 257 259 260 261 262 263 264 265 266 268 269 270 272 273 275 276 278 279 280 281 282 283 284 286 288 290 292 293 294 296 298 300 302 304 305 305 305 305 305 306 307 308 309 311 312
255 256 256 254 255 256 256 256 256 256 255 255 257 258 258 258 257 257 258 259 260 260 260 259 258 258 257 257 258 258 257 257 258 257 256 255 256 256 257 257 258 260 261 263 263 264 265 266 267 268 269 270 271 273 275 277 279 280 281 283 284 284 285 287 288 290 291 292 294 295 298 300 302 303 303 303 303 303 304 305 306 307 308 309 310
255 256 255 254 255 256 257 257 258 258 257 256 256 257 257 257 257 258 259 260 260 259 259 260 261 261 259 258 257 257 257 257 258 258 257 257 258 258 258 258 259 261 263 265 266 266 267 268 268 269 270 272 273 274 275 277 278 280 282 283 285 285 286 288 289 290 291 292 293 295 297 298 300 301 301 302 302 302 303 304 305 306 307 308 309
256 257 255 254 255 256 257 258 258 258 257 256 256 256 257 257 258 260 261 261 260 258 258 260 262 262 260 257 256 255 256 258 260 260 259 259 259 259 260 260 261 262 264 267 268 268 268 269 270 271 272 273 273 274 276 277 278 280 282 284 285 286 286 287 288 289 290 292 293 294 296 297 299 299 300 301 301 302 303 304 305 305 306 306 308
256 257 256 255 255 256 258 259 259 258 257 256 256 257 257 257 258 259 260 259 258 258 259 261 263 263 261 257 255 255 257 259 260 261 261 261 261 262 262 262 262 262 264 267 269 269 268 269 269 270 272 273 274 275 276 277 279 280 282 284 285 286 286 287 287 289 290 292 293 294 296 297 298 299 300 300 301 302 303 304 305 305 305 306 307
255 256 256 255 256 257 258 260 260 259 257 256 256 257 257 256 257 258 258 257 257 258 260 262 264 264 262 259 257 257 259 261 261 262 262 263 264 265 265 265 264 264 266 267 268 268 268 268 269 270 272 274 275 276 277 278 280 282 284 285 286 286 286 287 288 289 291 292 293 295 296 297 298 299 300 300 301 302 303 304 304 305 305 306 306
255 257 257 256 257 258 259 259 260 259 258 257 257 257 257 257 258 259 258 257 257 259 261 263 265 265 263 260 259 259 261 262 263 263 264 265 265 266 266 266 266 267 267 267 268 268 268 269 270 272 273 274 276 277 279 281 283 284 284 285 286 287 287 288 288 290 291 292 294 295 297 298 299 300 301 301 302 302 303 303 304 305 305 305 306
255 256 256 257 257 258 258 258 259 259 258 257 257 256 257 258 259 259 258 258 259 261 262 264 266 265 263 261 260 260 261 262 263 264 264 265 266 267 268 269 269 268 268 268 268 268 269 270 272 273 275 276 277 279 280 282 283 284 284 285 286 287 288 288 289 290 292 293 295 296 298 299 300 301 301 301 302 302 303 304 304 305 305 305 306
252 253 254 255 256 257 257 257 258 259 259 259 257 256 257 258 259 259 259 260 262 263 264 265 266 265 264 263 262 261 262 262 264 264 265 266 267 269 270 271 270 269 269 268 267 268 269 271 273 275 276 277 278 280 281 281 282 283 284 286 287 288 289 290 291 292 293 294 296 297 298 299 300 301 301 302 302 303 303 304 304 305 306 306 306
250 250 250 252 254 255 256 256 257 259 260 260 259 257 257 257 257 259 262 263 264 265 265 265 264 265 265 265 263 263 263 264 265 265 266 267 269 271 272 271 270 269 268 268 267 268 271 273 275 276 277 278 279 280 280 280 281 283 285 287 288 289 290 291 292 293 294 296 297 298 299 299 300 301 301 302 303 303 304 305 305 306 306 306 306
248 249 249 251 252 253 254 255 257 258 260 259 258 258 257 258 260 263 265 264 264 264 264 264 264 264 265 265 265 265 266 267 267 267 268 269 270 271 271 271 269 268 267 268 269 271 273 275 276 276 277 278 279 279 280 280 282 283 286 288 290 291 292 293 293 295 296 297 298 298 299 300 301 301 302 303 303 304 305 305 305 306 306 306 307
247 247 248 249 251 252 253 254 256 258 259 258 259 260 261 262 263 264 264 263 263 263 264 264 264 264 265 265 266 267 268 269 270 270 270 270 270 270 269 268 268 268 269 270 271 272 274 275 276 277 277 278 279 280 280 282 284 285 287 289 291 292 293 294 295 296 298 298 298 299 300 301 301 302 303 303 304 304 305 305 306 306 307 307 307
246 246 245 246 249 251 253 254 256 258 259 259 260 262 262 262 263 263 263 263 264 264 265 266 266 266 267 268 269 270 271 272 272 271 270 269 268 268 268 268 269 270 270 271 271 272 273 275 276 278 279 280 281 282 283 285 286 287 289 290 292 293 295 296 296 298 298 299 299 300 301 302 302 303 304 304 304 305 306 306 306 307 306 306 306
244 244 244 245 248 251 253 254 256 258 259 259 260 261 262 263 263 264 264 265 266 267 268 268 268 269 269 270 270 270 270 270 269 268 268 268 269 269 269 270 270 270 270 271 272 273 274 276 277 279 281 282 283 284 285 286 287 289 290 292 293 295 296 297 298 299 300 300 301 301 303 304 304 304 305 305 306 306 307 307 307 306 306 306 306